www.pogodaiklimat.ru

Погода и климат >> Архив погоды >> Боливия >> Rurrenabaque


ПОГОДА в Rurrenabaque

  • Прогноз погоды в Rurrenabaque
  • Монитор погоды в Rurrenabaque
  • Климат города

АРХИВ ПОГОДЫ в Rurrenabaque

Время (UTC), дата Ветер
(напр.,м/с)
 
Видим.   Явления Облачность Т
(С)
Тd
(С)
f
(%)
Тe
(С)
Тes
(С)
Комфортность P
(гПа)
Po
(гПа)
Тmin
(С)
Tmax
(С)
R
(мм)
R24
(мм)
S
(см)
12 17.08 ЮВ 5 20 км в посл. час дождь 10/8 400 м
[Sc As op]
+19.2 +17.7 91 +21 +21 комфорт 1015.4 992.1 +19.0 48
15 17.08 штиль 0 5000 м слабый дождь 10/8 300 м
[Frnb As op]
+19.4 +19.1 98 +22 +22 комфорт 1017.1 993.7
18 17.08 штиль 0 2000 м слабый дождь 10/8 150 м
[Frnb As op]
+20.1 +20.1 100 +24 +24 комфорт 1014.5 991.1 10
21 17.08 штиль 0 4000 м слабый дождь 10/8 180 м
[Frnb As op]
+20.3 +20.3 100 +24 +24 комфорт 1012.8 989.4 +20.5
12 18.08 штиль 0 1500 м слабый дождь 10/9 120 м
[Frnb As op]
+19.1 +19.1 100 +21 +21 комфорт 1013.4 990.0 +18.8 17
15 18.08 штиль 0 2000 м 9/9 150 м
[Frnb As op]
+20.8 +20.8 100 +26 +28 душно 1012.7 991.3
18 18.08 СЗ 2 20 км 8/6 300 м
[Cu Sc Ac trans]
+22.8 +21.7 94 +31 +35 очень
душно
1012.7 989.3 0.3
21 18.08 штиль 0 20 км 9/6 240 м
[Sc Ac trans]
+22.9 +21.7 93 +31 +31 очень
душно
1010.5 987.2 +23.2
12 19.08 штиль 0 1000 м слабая морось 10/10 120 м
[Frnb]
+20.3 +20.3 100 +24 +24 комфорт 1009.2 985.8 +20.0 1
15 19.08 СЗ 2 20 км 6/6 300 м
[Sc Ac trans]
+23.9 +22.4 91 +31 +37 очень
душно
986.7
18 19.08 С 3 20 км 3/3 500 м
[Cu hum]
+29.2 +25.3 80 +43 +51 опасность
перегрева
1005.9 982.8
21 19.08 С 3 20 км 1/1 500 м
[Cu hum Ac trans]
+30.3 +25.6 76 +45 +46 опасность
перегрева
1003.7 980.9 +29.5
12 20.08 штиль 0 20 км 8/8 700 м
[Sc]
+21.7 +21.0 96 +28 +28 душно 1011.9 988.6 +19.6
15 20.08 ЮВ 3 20 км 6/5 500 м
[Cu med, cong Ac trans]
+25.8 +24.5 93 +36 +42 очень
душно
1015.1 991.8
18 20.08 ЮВ 4 20 км 8/5 500 м
[Cb cap Ac trans]
+30.0 +25.1 75 +43 +47 опасность
перегрева
1012.9 989.8
21 20.08 штиль 0 20 км 4/1 600 м
[Cu med, cong Ci fib]
+30.9 +25.8 74 +46 +48 опасность
перегрева
1010.2 987.3 +32.0
12 21.08 штиль 0 20 км 5/0 2000 м
[Ac trans]
+21.1 +18.0 82 +25 +27 комфорт 1019.0 996.1 +19.8
15 21.08 ЮВ 6 20 км ясно +25.0 +16.5 59 +28 +34 жарко 1019.9 996.6
18 21.08 ЮВ 4 20 км ясно +27.7 +19.8 62 +34 +44 очень
душно
1016.3 994.2
21 21.08 ЮВ 3 20 км ясно +27.5 +19.7 62 +33 +35 очень
душно
1015.7 992.6 +29.1
12 22.08 штиль 0 20 км 5/0 2000 м
[Ac trans]
+19.3 +18.9 98 +21 +23 комфорт 1017.4 994.1 +16.5
15 22.08 ЮВ 4 20 км ясно +27.6 +17.7 55 +32 +42 очень
душно
1017.5 994.2
18 22.08 ЮВ 3 20 км ясно +28.9 +17.6 50 +33 +46 очень
душно
1013.7 990.4
21 22.08 С 2 20 км ясно +28.9 +19.6 57 +35 +37 очень
душно
1011.4 988.3 +30.0
12 23.08 штиль 0 20 км ясно +18.8 +17.9 95 +20 +23 1011.2 987.9 +15.6
15 23.08 С 3 20 км ясно +27.8 +22.5 73 +37 +49 очень
душно
1011.8 988.5
18 23.08 С 5 20 км 1/1 600 м
[Cu hum]
+31.5 +24.5 66 +44 +51 опасность
перегрева
1008.6 985.5
21 23.08 С 4 20 км 1/1 600 м
[Cu hum]
+31.2 +22.8 61 +41 +42 опасность
перегрева
1006.8 983.9 +31.8

 

Местоположение метеостанции Rurrenabaque (Боливия): широта -14.46 долгота -67.56 высота над уровнем моря 204 м.

В архиве по умолчанию представлена погода в Rurrenabaque за последнюю неделю. Архивные данные за месяц целиком и за предыдущие месяцы, начиная с января 2011 года, Вы можете получить, выбрав интересующий диапазон дат из раскрывающегося списка и нажав кнопку "Ввод!".

Внимание! Время в таблицах - всемирное. Для получения местного времени необходимо прибавить поправку, которая в Rurrenabaque равна -4 ч.

Смотрите также архив погоды в соседних городах и на ближайших метеорологических станциях:

Погода в Reyes (Боливия) (26 км)
Погода в Santa Rosa (Боливия) (78 км)
Погода в San Borja (Боливия) (87 км)
Погода в San Ignacio De Moxo (Боливия) (217 км)
Погода в Ovejuyo (Боливия) (235 км)
Погода в La Paz (Боливия) (238 км)
Погода в Santa Ana (Боливия) (243 км)
Погода в Baures (Боливия) (243 км)
Погода в Puerto Maldonado (Перу) (273 км)
Погода в Trinidad (Боливия) (288 км)

Пояснения к столбцам:

Ветер - указаны скорость ветра в м/с - средняя за 10 мин, порывы в срок и между сроками (в фигурных скобках) и направление, откуда дует ветер: С - северный, СВ - северо-восточный, В - восточный, ЮВ - юго-восточный, Ю - южный, ЮЗ - юго-западный, З - западный, СЗ - северо-западный.
Видимость - горизонтальная дальность видимости в метрах или километрах. При видимости от 1 до 10 км при отсутствии осадков обычно наблюдается дымка, при ухудшении видимости до 1 км и менее - туман. В сухую погоду видимость может ухудшаться дымом, пылью или мглою.
Явления - указаны атмосферные явления, наблюдавшиеся в срок или в последний час перед сроком; фигурными скобками обозначены явления, наблюдавшиеся между сроками (за 1-3 часа до срока); квадратными скобками обозначены град или гололедные отложения с указанием их диаметра в мм.
Облачность - указаны через наклонную черту общая и нижняя облачность в баллах и высота нижней границы облаков в метрах; квадратными скобками обозначены формы облаков: Ci - перистые, Cs - перисто-слоистые, Cc - перисто-кучевые, Ac - высококучевые, As - высокослоистые, Sc - слоисто-кучевые, Ns - слоисто-дождевые, Cu - кучевые, Cb - кучево-дождевые. Подробнее классификацию облаков см. в Атласе облаков (PDF).
T - Температура воздуха - температура, измеренная на высоте 2 м над землей.
Td - Температура точки росы - температура, при понижении до которой содержащийся в воздухе водяной пар достигнет насыщения.
f - Относительная влажность воздуха - влажноcть воздуха, измеренная на высоте 2 м над землей.
Te - Эффективная температура - температура, которую ощущает одетый по сезону человек в тени. Характеристика душности погоды. При расчете учитывается влияние влажности воздуха и скорости ветра на теплоощущения человека.
Tes - Эффективная температура на солнце - температура, которую ощущает человек, с поправкой на солнечный нагрев. Характеристика знойности погоды. Зависит от высоты солнца над горизонтом, облачности и скорости ветра. Ночью, в пасмурную погоду, а также при ветре 12 м/с и более поправка равна нулю.
P - Атмосферное давление - приведенное к уровню моря атмосферное давление.
Po - Атмосферное давление - измеренное на уровне метеостанции атмосферное давление.
Tmin - Минимальная температура - минимум температуры воздуха на высоте 2 м над землей.
Tmax - Максимальная температура - максимум температуры воздуха на высоте 2 м над землей.
R - Количество осадков - Количество выпавших осадков за период времени, мм. При наведении курсора мыши на число - период времени, за который выпало указанное количество осадков.
R24 - Количество осадков - Количество выпавших осадков за 24 часа, мм.
S - Снежный покров - Высота снежного покрова, см. При наведении курсора мыши на число - состояние снежного покрова и степень покрытия местности в баллах.